Location: Bijele Vode
(45.2833°N, 16.2000°E)
Time: 00:53:19
(UTC+00:00)

Lacrosse 5 rocket - Pass Details

Date: 18 January 2021
Orbit: 465 x 630 km, 57.0° (Epoch: 06 March)

Event Time Altitude Azimuth Distance (km) Brightness Sun altitude
Exits shadow 03:52:43 17° 27° (NNE) 1,374 3.6 -27.1°
Drops below altitude 10° 03:54:37 10° 56° (NE) 1,722 4.5 -26.7°
Sets 03:57:20 0° 76° (ENE) 2,574 5.9 -26.3°
